This demonstration page uses our WeatherBlox Daily Observations layout. Learn more.

38.89511, -77.03637

Hourly Observations for March 22, 2015

Temp ( °F °C ) Dew Point ( °F °C ) Humidity (%) Winds ( mph kmh ) Pressure ( in mb ) Visibility ( mi km ) Precip ( " mm )
12:52 am 00:52 Mostly Cloudy 50 10 40 4.4 68 68 NE 3 6 29.99 1016 10 16.0934 0 0
1:52 am 01:52 Mostly Cloudy 53 11.7 39 3.9 59 59 N 8 13 30.02 1017 10 16.0934 0 0
2:52 am 02:52 Mostly Cloudy 51 10.6 37 2.8 59 59 N 15 24 30.03 1017 10 16.0934 0 0
3:52 am 03:52 Mostly Cloudy 49 9.4 34 1.1 56 56 NNW 17 28 30.05 1018 10 16.0934 0 0
4:52 am 04:52 Mostly Cloudy 47 8.3 33 0.6 59 59 N 9 15 30.06 1018 10 16.0934 0 0
5:52 am 05:52 Mostly Cloudy 47 8.3 32 0 56 56 N 15 24 30.07 1018 10 16.0934 0 0
6:52 am 06:52 Mostly Cloudy 46 7.8 31 -0.6 56 56 N 14 22 30.09 1019 10 16.0934 0 0
7:52 am 07:52 Mostly Cloudy 45 7.2 29 -1.7 54 54 N 9 15 30.11 1020 10 16.0934 0 0
8:52 am 08:52 Mostly Cloudy 46 7.8 29 -1.7 51 51 N 13 20 30.14 1021 10 16.0934 0 0
9:52 am 09:52 Mostly Cloudy 48 8.9 28 -2.2 46 46 NNW 17 28 30.15 1021 10 16.0934 0 0
10:52 am 10:52 Mostly Cloudy 49 9.4 25 -3.9 39 39 N 16 26 30.16 1021 10 16.0934 0 0
11:52 am 11:52 Mostly Cloudy 51 10.6 22 -5.6 32 32 NNW 14 22 30.15 1021 10 16.0934 0 0
12:52 pm 12:52 Mostly Cloudy 52 11.1 21 -6.1 30 30 NNW 13 20 30.14 1021 10 16.0934 0 0
1:52 pm 13:52 Mostly Cloudy 53 11.7 17 -8.3 24 24 N 15 24 30.13 1020 10 16.0934 0 0
2:52 pm 14:52 Mostly Cloudy 54 12.2 19 -7.2 25 25 N 8 13 30.09 1019 10 16.0934 0 0
3:52 pm 15:52 Mostly Cloudy 55 12.8 22 -5.6 28 28 N 9 15 30.08 1019 10 16.0934 0 0
4:52 pm 16:52 Partly Cloudy 56 13.3 18 -7.8 22 22 NW 8 13 30.06 1018 10 16.0934 0 0
5:52 pm 17:52 Mostly Cloudy 56 13.3 18 -7.8 22 22 N 13 20 30.06 1018 10 16.0934 0 0
6:52 pm 18:52 Mostly Cloudy 54 12.2 17 -8.3 23 23 N 9 15 30.07 1018 10 16.0934 0 0
7:52 pm 19:52 Mostly Cloudy 51 10.6 19 -7.2 28 28 N 6 9 30.08 1019 10 16.0934 0 0
8:52 pm 20:52 Mostly Cloudy 50 10 18 -7.8 28 28 N 8 13 30.09 1019 10 16.0934 0 0
9:52 pm 21:52 Partly Cloudy 50 10 19 -7.2 29 29 NNE 10 17 30.12 1020 10 16.0934 0 0
10:52 pm 22:52 Mostly Cloudy 48 8.9 20 -6.7 33 33 N 8 13 30.14 1021 10 16.0934 0 0
11:52 pm 23:52 Mostly Cloudy 46 7.8 20 -6.7 35 35 N 9 15 30.16 1021 10 16.0934 0 0

Powered by AerisWeather